497P/Spacewatch-PanSTARRS (2011)

Japanese version
Home page
Updated on November 26, 2024

---------------------------------------------------------------------

* Profile

Designation 497P/2011 UA134
Discovery Date October 24 and 25, 2011
Magnitude 20.4 mag, 21.4 mag
Discoverer Spacewatch project, Pan-STARRS 1 telescope (Haleakala)

* Pictures

* Orbital Elements

                    Epoch = 2011 Dec. 25.0 TT
     T = 2011 Dec.  7.20483 TT        Peri. =  32.32930
     e = 0.6325168                    Node  =  40.63547 2000.0
     q = 2.0513528 AU                 Incl. =  10.53802
       a =  5.5821671 AU   n = 0.07473083   P =  13.19 years

* Magnitudes Graph

        m1 = -139   + 5 log d + 500 log r(t + 8)    [ ,0]  (             - 2011 Dec.  7)
        m1 =    6.6 + 5 log d +  30 log r(t + 100)  [0, ]  (2011 Dec.  7 -             )

---------------------------------------------------------------------

The orbital elements are printed on CBET 5464.
The magnitudes graphs are made with Comet for Windows.

---------------------------------------------------------------------

Copyright(C) Seiichi Yoshida (comet@aerith.net). All rights reserved.